Weather History for Thedford, NE

Change the Weather History Date:

Tuesday, May 28, 2013

  Actual Average (KLBF) Record (KLBF)
Temperature  
Mean Temperature 68 °F 62 °F  
Max Temperature 81 °F 75 °F 98 °F (2006)
Min Temperature 55 °F 48 °F 33 °F (1992)
Degree Days  
Heating Degree Days 0 5  
Month to date heating degree days 231  
Since 1 July heating degree days 6621  
Cooling Degree Days 3 1  
Month to date cooling degree days 18  
Year to date cooling degree days 21  
Growing Degree Days 18 (Base 50)    
Moisture  
Dew Point 54 °F    
Average Humidity 67    
Maximum Humidity 91    
Minimum Humidity 30    
Precipitation  
Precipitation 0.00 in 0.12 in 2.00 in (1962)
Month to date precipitation 2.90  
Year to date precipitation 7.06  
Snow  
Snow 0.00 in 0.00 in 0.50 in (1947)
Month to date snowfall 0.0  
Since 1 July snowfall 28.5  
Snow Depth -    
Sea Level Pressure  
Sea Level Pressure 29.74 in    
Wind  
Wind Speed 6 mph (ESE)    
Max Wind Speed 20 mph    
Max Gust Speed 25 mph    
Visibility 10 miles    
Events Thunderstorm    
T = Trace of Precipitation, MM = Missing Value Source: NWS Daily Summary

Daily Weather History Graph

Daily Weather History Graph

Search for Another Location

Airport:

Trip Planner

Search our weather history database for the weather conditions in past years. The results will help you decide how hot, cold, wet, or windy it might be!

Date:

Astronomy

May. 28, 2013 Rise Set
Actual Time 6:11 AM CDT 9:08 PM CDT
Civil Twilight 5:38 AM CDT 9:41 PM CDT
Nautical Twilight 4:55 AM CDT 10:24 PM CDT
Astronomical Twilight 4:06 AM CDT 11:13 PM CDT
Moon No Moon Rise 10:03 AM CDT (5/28)
Length of Visible Light 16h 03m
Length of Day
14h 57m
Waning Gibbous, 82% of the Moon is Illuminated
May 28
Waning Gibbous
May 31
Last Quarter
Jun 8
New
Jun 16
First Quarter
Jun 23
Full

Hourly Weather History & Observations

Time (CDT) Temp. Dew Point Humidity Pressure Visibility Wind Dir Wind Speed Gust Speed Precip Events Conditions
12:15 AM 59.2 °F 54.1 °F 83% 29.76 in 10.0 mi Calm Calm - N/A   Clear
12:35 AM 58.6 °F 54.7 °F 87% 29.77 in 10.0 mi Calm Calm - N/A   Clear
12:55 AM 60.3 °F 54.5 °F 81% 29.77 in 10.0 mi NNE 5.8 mph - N/A   Clear
1:15 AM 59.4 °F 54.5 °F 84% 29.78 in 10.0 mi ENE 6.9 mph - N/A   Clear
1:35 AM 59.4 °F 52.7 °F 79% 29.76 in 10.0 mi NE 8.1 mph - N/A   Clear
1:55 AM 57.7 °F 52.9 °F 84% 29.76 in 10.0 mi NE 5.8 mph - N/A   Clear
2:15 AM 57.2 °F 52.9 °F 85% 29.76 in 10.0 mi NNE 5.8 mph - N/A   Clear
2:35 AM 56.7 °F 53.1 °F 88% 29.77 in 10.0 mi NNE 5.8 mph - N/A   Clear
2:55 AM 56.7 °F 53.2 °F 88% 29.77 in 10.0 mi North 6.9 mph - N/A   Mostly Cloudy
3:15 AM 57.2 °F 53.6 °F 88% 29.77 in 10.0 mi NNE 6.9 mph - N/A   Overcast
3:35 AM 57.2 °F 53.6 °F 88% 29.78 in 10.0 mi NE 8.1 mph - N/A   Overcast
3:55 AM 56.7 °F 53.6 °F 89% 29.78 in 10.0 mi NE 9.2 mph - N/A   Overcast
4:15 AM 56.5 °F 53.6 °F 90% 29.78 in 10.0 mi ENE 10.4 mph - N/A   Overcast
4:35 AM 56.3 °F 53.1 °F 89% 29.78 in 10.0 mi ENE 6.9 mph - N/A   Overcast
4:55 AM 55.9 °F 52.9 °F 89% 29.78 in 10.0 mi NE 9.2 mph - N/A   Overcast
5:15 AM 55.4 °F 52.5 °F 90% 29.78 in 10.0 mi ENE 8.1 mph - N/A   Overcast
5:35 AM 55.4 °F 52.3 °F 89% 29.79 in 10.0 mi ENE 5.8 mph - N/A   Overcast
5:55 AM 55.6 °F 52.7 °F 90% 29.79 in 10.0 mi ENE 3.5 mph - N/A   Overcast
6:15 AM 55.6 °F 52.7 °F 90% 29.80 in 10.0 mi Calm Calm - N/A   Overcast
6:35 AM 55.6 °F 52.9 °F 91% 29.79 in 7.0 mi Calm Calm - N/A   Overcast
6:55 AM 55.8 °F 53.1 °F 91% 29.80 in 7.0 mi Calm Calm - N/A   Overcast
7:15 AM 55.9 °F 53.1 °F 90% 29.79 in 7.0 mi Calm Calm - N/A   Overcast
7:35 AM 56.3 °F 53.2 °F 89% 29.79 in 10.0 mi WNW 3.5 mph - N/A   Overcast
7:55 AM 57.0 °F 53.2 °F 87% 29.79 in 10.0 mi SW 4.6 mph - N/A   Overcast
8:15 AM 57.2 °F 53.6 °F 88% 29.79 in 10.0 mi WSW 5.8 mph - N/A   Overcast
8:35 AM 57.4 °F 53.4 °F 87% 29.80 in 10.0 mi WSW 8.1 mph - N/A   Overcast
8:55 AM 58.3 °F 53.8 °F 85% 29.79 in 10.0 mi West 9.2 mph - N/A   Overcast
9:15 AM 59.2 °F 54.3 °F 84% 29.79 in 10.0 mi West 9.2 mph - N/A   Overcast
9:35 AM 59.7 °F 54.3 °F 82% 29.79 in 10.0 mi WSW 6.9 mph - N/A   Mostly Cloudy
9:55 AM 62.4 °F 54.9 °F 76% 29.79 in 10.0 mi West 5.8 mph - N/A   Scattered Clouds
10:15 AM 64.2 °F 55.9 °F 74% 29.78 in 10.0 mi West 6.9 mph - N/A   Scattered Clouds
10:35 AM 65.8 °F 55.6 °F 69% 29.78 in 10.0 mi West 8.1 mph - N/A   Clear
10:55 AM 67.8 °F 55.2 °F 64% 29.78 in 10.0 mi West 9.2 mph - N/A   Clear
11:15 AM 68.9 °F 55.2 °F 62% 29.78 in 10.0 mi WSW 6.9 mph - N/A   Clear
11:35 AM 70.3 °F 55.2 °F 59% 29.78 in 10.0 mi SW 5.8 mph - N/A   Clear
11:55 AM 71.1 °F 54.9 °F 56% 29.78 in 10.0 mi WSW 8.1 mph - N/A   Clear
12:15 PM 72.3 °F 54.7 °F 54% 29.77 in 10.0 mi West 5.8 mph - N/A   Clear
12:35 PM 72.7 °F 54.0 °F 52% 29.77 in 10.0 mi WSW 5.8 mph - N/A   Clear
12:55 PM 73.8 °F 54.0 °F 50% 29.76 in 10.0 mi SW 3.5 mph - N/A   Clear
1:15 PM 74.1 °F 53.2 °F 48% 29.75 in 10.0 mi WNW 3.5 mph - N/A   Clear
1:35 PM 75.0 °F 53.2 °F 47% 29.74 in 10.0 mi WNW 4.6 mph - N/A   Clear
1:55 PM 76.6 °F 53.1 °F 44% 29.74 in 10.0 mi Calm Calm - N/A   Clear
2:15 PM 76.5 °F 51.8 °F 42% 29.73 in 10.0 mi SSW 3.5 mph - N/A   Clear
2:35 PM 77.2 °F 51.3 °F 40% 29.73 in 10.0 mi Calm Calm - N/A   Clear
2:55 PM 78.8 °F 50.2 °F 37% 29.73 in 10.0 mi SE 9.2 mph - N/A   Clear
3:15 PM 79.7 °F 50.2 °F 36% 29.72 in 10.0 mi SSE 6.9 mph - N/A   Clear
3:35 PM 80.6 °F 49.8 °F 34% 29.72 in 10.0 mi SSE 12.7 mph - N/A   Clear
3:55 PM 80.6 °F 49.5 °F 34% 29.72 in 10.0 mi SE 13.8 mph 18.4 mph N/A   Clear
4:15 PM 81.1 °F 46.9 °F 30% 29.72 in 10.0 mi SSE 10.4 mph 18.4 mph N/A   Clear
4:35 PM 80.2 °F 50.7 °F 36% 29.70 in 10.0 mi SE 13.8 mph 18.4 mph N/A   Clear
4:55 PM 80.8 °F 50.0 °F 34% 29.69 in 10.0 mi SE 10.4 mph - N/A   Clear
5:15 PM 81.1 °F 50.7 °F 35% 29.68 in 10.0 mi SSE 15.0 mph 20.7 mph N/A   Clear
5:35 PM 80.6 °F 52.9 °F 38% 29.68 in 10.0 mi SE 15.0 mph 20.7 mph N/A   Clear
5:55 PM 79.9 °F 52.0 °F 38% 29.68 in 10.0 mi SE 15.0 mph 20.7 mph N/A   Clear
6:15 PM 79.0 °F 51.6 °F 38% 29.67 in 10.0 mi SE 17.3 mph - N/A   Clear
6:35 PM 77.7 °F 54.5 °F 45% 29.66 in 10.0 mi SE 18.4 mph 23.0 mph N/A   Clear
6:55 PM 76.6 °F 55.0 °F 47% 29.66 in 10.0 mi ESE 16.1 mph 25.3 mph N/A   Clear
7:15 PM 75.2 °F 54.5 °F 48% 29.66 in 10.0 mi ESE 19.6 mph - N/A   Clear
7:35 PM 74.3 °F 53.8 °F 49% 29.67 in 10.0 mi SE 18.4 mph - N/A   Clear
7:55 PM 73.6 °F 55.4 °F 53% 29.66 in 10.0 mi SE 12.7 mph 19.6 mph N/A   Clear
8:15 PM 72.7 °F 55.0 °F 54% 29.66 in 10.0 mi SE 11.5 mph - N/A   Clear
8:35 PM 71.8 °F 55.6 °F 57% 29.66 in 10.0 mi SE 8.1 mph - N/A   Clear
8:55 PM 70.0 °F 56.5 °F 62% 29.64 in 10.0 mi ESE 8.1 mph - N/A   Clear
9:15 PM 68.4 °F 56.3 °F 65% 29.65 in 10.0 mi ESE 6.9 mph - N/A   Clear
9:35 PM 68.0 °F 56.5 °F 67% 29.67 in 10.0 mi ESE 6.9 mph - N/A   Clear
9:55 PM 67.6 °F 56.7 °F 68% 29.71 in 10.0 mi SE 5.8 mph - N/A   Clear
10:15 PM 66.6 °F 57.2 °F 72% 29.74 in 10.0 mi Calm Calm - N/A   Clear
10:35 PM 67.5 °F 57.6 °F 70% 29.76 in 10.0 mi Calm Calm - N/A   Scattered Clouds
10:55 PM 66.2 °F 58.5 °F 76% 29.77 in 10.0 mi North 3.5 mph - N/A   Overcast
11:15 PM 67.6 °F 59.0 °F 74% 29.75 in 10.0 mi NE 5.8 mph - N/A   Overcast
11:35 PM 67.3 °F 59.0 °F 75% 29.73 in 10.0 mi NE 10.4 mph - N/A Thunderstorm Overcast
11:55 PM 67.3 °F 58.1 °F 72% 29.73 in 10.0 mi NE 8.1 mph - N/A Thunderstorm Overcast